Weather History for Wainwright, AK

Change the Weather History Date:

Tuesday, August 20, 2013

  Actual Average (PABR) Record (PABR)
Temperature  
Mean Temperature 32 °F 39 °F  
Max Temperature 35 °F 43 °F 65 °F (1965)
Min Temperature 30 °F 34 °F 25 °F (1981)
Degree Days  
Heating Degree Days 32 26  
Month to date heating degree days 507  
Since 1 June heating degree days 2134  
Since 1 July heating degree days 1254  
Cooling Degree Days 0    
Month to date cooling degree days  
Year to date cooling degree days  
Since 1 June cooling degree days  
Moisture  
Dew Point 25 °F    
Average Humidity 72    
Maximum Humidity 79    
Minimum Humidity 64    
Precipitation  
Precipitation 0.00 in 0.04 in 0.48 in (1955)
Month to date precipitation 0.69  
Year to date precipitation 2.69  
Snow  
Snow 0.00 in 0.00 in 0.40 in (1938)
Month to date snowfall 0.4  
Since 1 June snowfall 1.3  
Since 1 July snowfall 0.6  
Snow Depth -    
Sea Level Pressure  
Sea Level Pressure 30.00 in    
Wind  
Wind Speed 8 mph (NE)    
Max Wind Speed 12 mph    
Max Gust Speed -    
Visibility 10 miles    
Events      
T = Trace of Precipitation, MM = Missing Value Source: NWS Daily Summary

Daily Weather History Graph

Daily Weather History Graph

Search for Another Location

Airport:

Trip Planner

Search our weather history database for the weather conditions in past years. The results will help you decide how hot, cold, wet, or windy it might be!

Date:

Astronomy

Aug. 20, 2013 Rise Set
Actual Time 5:57 AM AKDT 11:25 PM AKDT
Civil Twilight 4:01 AM AKDT 1:15 AM AKDT
Nautical Twilight Sun does not rise Sun does not rise
Astronomical Twilight Sun does not rise Sun does not rise
Moon 10:07 PM AKDT (8/20) 6:09 AM AKDT (8/20)
Length of Visible Light 21h 13m
Length of Day
17h 28m
Full, 100% of the Moon is Illuminated
Aug 20
Full
Aug 20
Full
Aug 28
Last Quarter
Sep 5
New
Sep 12
First Quarter

Hourly Weather History & Observations

Time (AKDT) Temp. Windchill Dew Point Humidity Pressure Visibility Wind Dir Wind Speed Gust Speed Precip Events Conditions
12:53 AM 33.1 °F 24.9 °F 26.1 °F 75% 29.99 in 10.0 mi ENE 10.4 mph - N/A   Overcast
1:53 AM 33.1 °F 26.1 °F 26.1 °F 75% 29.99 in 10.0 mi ENE 8.1 mph - N/A   Overcast
2:53 AM 32.0 °F 25.6 °F 26.1 °F 79% 29.99 in 10.0 mi ENE 6.9 mph - N/A   Overcast
3:53 AM 32.0 °F 26.4 °F 25.0 °F 75% 29.99 in 10.0 mi ENE 5.8 mph - N/A   Overcast
4:53 AM 32.0 °F 26.4 °F 25.0 °F 75% 30.00 in 10.0 mi ENE 5.8 mph - N/A   Overcast
5:53 AM 30.9 °F 26.2 °F 25.0 °F 79% 30.00 in 10.0 mi ENE 4.6 mph - N/A   Overcast
6:53 AM 30.9 °F 27.5 °F 25.0 °F 79% 30.00 in 10.0 mi ENE 3.5 mph - N/A   Overcast
7:53 AM 32.0 °F 27.5 °F 25.0 °F 75% 30.00 in 10.0 mi NE 4.6 mph - N/A   Overcast
8:53 AM 33.1 °F 25.5 °F 25.0 °F 72% 30.00 in 10.0 mi NNE 9.2 mph - N/A   Overcast
9:53 AM 33.1 °F 27.7 °F 26.1 °F 75% 30.01 in 10.0 mi East 5.8 mph - N/A   Overcast
10:53 AM 33.1 °F 28.7 °F 24.1 °F 70% 30.01 in 10.0 mi NNE 4.6 mph - N/A   Overcast
11:53 AM 33.1 °F 24.4 °F 26.1 °F 75% 30.01 in 10.0 mi NNE 11.5 mph - N/A   Overcast
12:53 PM 34.0 °F 25.5 °F 26.1 °F 73% 30.01 in 10.0 mi North 11.5 mph - N/A   Overcast
1:53 PM 34.0 °F 26.6 °F 25.0 °F 70% 30.01 in 10.0 mi North 9.2 mph - N/A   Overcast
2:53 PM 34.0 °F 25.5 °F 25.0 °F 70% 30.01 in 10.0 mi North 11.5 mph - N/A   Overcast
3:53 PM 35.1 °F 27.4 °F 25.0 °F 67% 30.02 in 10.0 mi North 10.4 mph - N/A   Overcast
4:53 PM 35.1 °F 27.4 °F 25.0 °F 67% 30.01 in 10.0 mi North 10.4 mph - N/A   Overcast
5:53 PM 35.1 °F 26.9 °F 25.0 °F 67% 30.01 in 10.0 mi North 11.5 mph - N/A   Overcast
6:53 PM 35.1 °F 26.9 °F 26.1 °F 70% 30.00 in 10.0 mi North 11.5 mph - N/A   Overcast
7:53 PM 35.1 °F 27.9 °F 24.1 °F 64% 29.99 in 10.0 mi ENE 9.2 mph - N/A   Overcast
8:53 PM 34.0 °F 27.2 °F 25.0 °F 70% 29.99 in 10.0 mi ENE 8.1 mph - N/A   Overcast
9:53 PM 34.0 °F 28.0 °F 25.0 °F 70% 29.98 in 10.0 mi ENE 6.9 mph - N/A   Overcast
10:53 PM 33.1 °F 25.5 °F 25.0 °F 72% 29.98 in 10.0 mi ENE 9.2 mph - N/A   Overcast
11:53 PM 32.0 °F 24.8 °F 25.0 °F 75% 29.98 in 10.0 mi NE 8.1 mph - N/A   Overcast